Date,TemperatureHighF,TemperatureAvgF,TemperatureLowF,DewpointHighF,DewpointAvgF,DewpointLowF,HumidityHigh,HumidityAvg,HumidityLow,PressureMaxIn,PressureMinIn,WindSpeedMaxMPH,WindSpeedAvgMPH,GustSpeedMaxMPH,PrecipitationSumIn
2013-9-1,81,73,70,76,71,67,95,92,83,29.87,29.77,6,0,8,0.43
2013-9-2,83,75,70,75,71,69,96,89,71,29.86,29.69,5,1,11,0.13
2013-9-3,82,74,65,71,68,59,96,82,64,29.79,29.68,6,1,12,0.01
2013-9-4,82,70,57,61,57,55,94,67,41,29.90,29.79,8,1,12,0.00
2013-9-5,71,64,52,62,55,42,92,76,36,30.13,29.84,3,0,9,0.08
2013-9-6,72,59,45,47,43,39,89,60,33,30.23,30.08,6,1,9,0.00
2013-9-7,80,65,48,57,50,45,90,62,33,30.08,29.84,8,1,11,0.00
2013-9-8,77,66,51,62,52,40,87,64,35,30.08,29.73,5,1,13,0.00
2013-9-9,71,58,44,50,44,40,89,63,37,30.23,30.08,5,0,11,0.00
2013-9-10,77,67,54,70,62,50,92,84,78,30.14,30.02,7,1,11,0.08
2013-9-11,97,82,69,77,72,67,96,75,44,30.05,29.92,7,1,11,0.00
2013-9-12,89,78,68,74,70,66,94,78,57,29.95,29.66,11,2,15,0.97
2013-9-13,79,69,60,69,65,55,96,86,64,29.74,29.55,3,0,7,0.18
2013-9-14,68,61,52,55,53,49,90,75,62,30.04,29.74,4,1,9,0.00
2013-9-15,72,60,47,54,49,45,96,71,40,30.15,30.04,6,1,8,0.00
2013-9-16,68,58,49,56,50,39,88,75,59,30.24,30.01,5,1,12,0.01
2013-9-17,65,52,40,45,39,36,90,64,38,30.41,30.24,7,0,9,0.00
2013-9-18,76,58,41,50,44,39,96,66,29,30.32,30.13,4,0,8,0.00
2013-9-19,82,63,46,55,51,45,95,69,36,30.13,30.01,3,0,6,0.00
2013-9-20,82,64,49,57,54,48,96,72,36,30.07,29.98,3,0,6,0.00
2013-9-21,77,66,54,66,60,52,96,82,55,30.02,29.71,10,1,19,0.00
2013-9-22,71,65,53,67,57,46,94,76,48,29.82,29.59,7,2,22,0.57
2013-9-23,66,54,45,46,42,40,84,66,47,29.99,29.82,6,1,11,0.00
2013-9-24,70,54,42,45,42,38,86,65,39,29.98,29.80,6,1,10,0.00
2013-9-25,70,56,44,50,47,42,94,73,49,29.97,29.87,5,1,8,0.00
2013-9-26,67,59,54,51,48,46,86,69,50,30.11,29.97,4,0,7,0.00
2013-9-27,68,59,50,53,51,48,93,76,55,30.25,30.11,5,0,6,0.00
2013-9-28,75,59,47,56,51,46,96,78,49,30.32,30.24,5,0,9,0.00
2013-9-29,69,55,46,55,48,43,96,80,41,30.26,30.11,5,0,9,0.01
2013-9-30,69,56,49,52,50,47,95,80,46,30.12,29.96,5,0,6,0.00